Time,TemperatureF,DewpointF,PressureIn,WindDirection,WindDirectionDegrees,WindSpeedMPH,WindSpeedGustMPH,Humidity,HourlyPrecipIn,Conditions,Clouds,dailyrainin,SoftwareType,DateUTC
2013-01-16 00:03:00,33.0,30.0,29.77,WSW,240,0.0,0.0,87,0.00,,,-99.99,,2013-01-16 05:03:00,
2013-01-16 00:12:00,33.0,30.0,29.77,WSW,240,0.0,0.0,87,0.00,,,-99.99,,2013-01-16 05:12:00,
2013-01-16 00:22:00,33.0,30.0,29.77,ENE,63,1.0,3.0,90,0.00,,,-99.99,,2013-01-16 05:22:00,
2013-01-16 00:32:00,33.0,31.0,29.77,ENE,76,1.0,2.0,91,0.00,,,-99.99,,2013-01-16 05:32:00,
2013-01-16 00:42:00,33.0,31.0,29.77,ENE,76,1.0,2.0,91,0.00,,,-99.99,,2013-01-16 05:42:00,
2013-01-16 00:53:00,32.0,30.0,29.77,ENE,73,1.0,2.0,92,0.00,,,-99.99,,2013-01-16 05:53:00,
2013-01-16 01:02:00,32.0,30.0,29.77,ENE,71,1.0,2.0,94,0.00,,,-99.99,,2013-01-16 06:02:00,
2013-01-16 01:12:00,32.0,30.0,29.77,ENE,71,1.0,2.0,94,0.00,,,-99.99,,2013-01-16 06:12:00,
2013-01-16 01:22:00,32.0,31.0,29.75,WSW,245,0.0,3.0,95,0.00,,,-99.99,,2013-01-16 06:22:00,
2013-01-16 01:32:00,31.0,30.0,29.77,ENE,71,1.0,4.0,97,0.00,,,-99.99,,2013-01-16 06:32:00,
2013-01-16 01:43:00,31.0,30.0,29.77,ENE,71,1.0,4.0,97,0.00,,,-99.99,,2013-01-16 06:43:00,
2013-01-16 01:53:00,31.0,30.0,29.74,NNE,33,2.0,6.0,97,0.00,,,-99.99,,2013-01-16 06:53:00,
2013-01-16 02:02:00,31.0,31.0,29.74,ENE,65,2.0,4.0,99,0.00,,,-99.99,,2013-01-16 07:02:00,
2013-01-16 02:12:00,31.0,31.0,29.74,ENE,65,2.0,4.0,99,0.00,,,-99.99,,2013-01-16 07:12:00,
2013-01-16 02:22:00,31.0,31.0,29.74,WNW,291,1.0,2.0,99,0.00,,,-99.99,,2013-01-16 07:22:00,
2013-01-16 02:33:00,31.0,31.0,29.74,WSW,251,1.0,3.0,99,0.00,,,-99.99,,2013-01-16 07:33:00,
2013-01-16 02:42:00,31.0,31.0,29.74,WSW,251,1.0,3.0,99,0.00,,,-99.99,,2013-01-16 07:42:00,
2013-01-16 02:52:00,31.0,31.0,29.74,ENE,72,2.0,4.0,99,0.00,,,-99.99,,2013-01-16 07:52:00,
2013-01-16 03:02:00,30.0,30.0,29.74,ENE,63,1.0,4.0,99,0.00,,,-99.99,,2013-01-16 08:02:00,
2013-01-16 03:12:00,30.0,30.0,29.74,ENE,63,1.0,4.0,99,0.00,,,-99.99,,2013-01-16 08:12:00,
2013-01-16 03:22:00,31.0,31.0,29.74,ENE,71,1.0,6.0,99,0.00,,,-99.99,,2013-01-16 08:22:00,
2013-01-16 03:32:00,32.0,32.0,29.71,ENE,74,1.0,3.0,99,0.00,,,-99.99,,2013-01-16 08:32:00,
2013-01-16 03:42:00,32.0,32.0,29.71,ENE,74,1.0,3.0,99,0.00,,,-99.99,,2013-01-16 08:42:00,
2013-01-16 03:53:00,31.0,31.0,29.71,East,97,1.0,4.0,99,0.00,,,-99.99,,2013-01-16 08:53:00,
2013-01-16 04:02:00,31.0,31.0,29.71,ENE,65,2.0,6.0,99,0.00,,,-99.99,,2013-01-16 09:02:00,
2013-01-16 04:12:00,31.0,31.0,29.71,ENE,65,2.0,6.0,99,0.00,,,-99.99,,2013-01-16 09:12:00,
2013-01-16 04:22:00,31.0,31.0,29.68,ENE,59,1.0,4.0,99,0.00,,,-99.99,,2013-01-16 09:22:00,
2013-01-16 04:32:00,31.0,31.0,29.71,ESE,106,1.0,4.0,99,0.00,,,-99.99,,2013-01-16 09:32:00,
2013-01-16 04:42:00,31.0,31.0,29.71,ESE,106,1.0,4.0,99,0.00,,,-99.99,,2013-01-16 09:42:00,
2013-01-16 04:53:00,31.0,31.0,29.71,ENE,72,1.0,3.0,99,0.00,,,-99.99,,2013-01-16 09:53:00,
2013-01-16 05:02:00,31.0,31.0,29.68,East,96,1.0,4.0,99,0.00,,,-99.99,,2013-01-16 10:02:00,
2013-01-16 05:12:00,31.0,31.0,29.68,East,96,1.0,4.0,99,0.00,,,-99.99,,2013-01-16 10:12:00,
2013-01-16 05:22:00,31.0,31.0,29.71,ENE,66,1.0,2.0,99,0.00,,,-99.99,,2013-01-16 10:22:00,
2013-01-16 05:32:00,31.0,31.0,29.70,WSW,243,0.0,2.0,99,0.00,,,-99.99,,2013-01-16 10:32:00,
2013-01-16 05:42:00,31.0,31.0,29.70,WSW,243,0.0,2.0,99,0.00,,,-99.99,,2013-01-16 10:42:00,
2013-01-16 05:53:00,30.0,30.0,29.68,WSW,248,0.0,2.0,99,0.00,,,-99.99,,2013-01-16 10:53:00,
2013-01-16 06:02:00,30.0,30.0,29.68,SW,216,0.0,2.0,99,0.00,,,-99.99,,2013-01-16 11:02:00,
2013-01-16 06:12:00,30.0,30.0,29.68,SW,216,0.0,2.0,99,0.00,,,-99.99,,2013-01-16 11:12:00,
2013-01-16 06:23:00,32.0,32.0,29.68,ENE,65,1.0,2.0,99,0.00,,,-99.99,,2013-01-16 11:23:00,
2013-01-16 06:33:00,30.0,30.0,29.67,SW,225,0.0,2.0,99,0.00,,,-99.99,,2013-01-16 11:33:00,
2013-01-16 06:42:00,30.0,30.0,29.67,SW,225,0.0,2.0,99,0.00,,,-99.99,,2013-01-16 11:42:00,
2013-01-16 06:53:00,31.0,31.0,29.66,NNE,25,1.0,3.0,99,0.00,,,-99.99,,2013-01-16 11:53:00,
2013-01-16 07:03:00,31.0,31.0,29.67,ENE,63,1.0,3.0,99,0.00,,,-99.99,,2013-01-16 12:03:00,
2013-01-16 07:13:00,31.0,31.0,29.67,ENE,63,1.0,3.0,99,0.00,,,-99.99,,2013-01-16 12:13:00,
2013-01-16 07:22:00,31.0,31.0,29.65,NE,34,1.0,4.0,99,0.00,,,-99.99,,2013-01-16 12:22:00,
2013-01-16 07:33:00,31.0,31.0,29.68,SSW,206,0.0,2.0,99,0.00,,,-99.99,,2013-01-16 12:33:00,
2013-01-16 07:43:00,31.0,31.0,29.68,SSW,206,0.0,2.0,99,0.00,,,-99.99,,2013-01-16 12:43:00,
2013-01-16 07:53:00,31.0,31.0,29.68,SSW,203,0.0,2.0,99,0.00,,,-99.99,,2013-01-16 12:53:00,
2013-01-16 08:03:00,31.0,31.0,29.65,WSW,245,1.0,4.0,99,0.00,,,-99.99,,2013-01-16 13:03:00,
2013-01-16 08:12:00,31.0,31.0,29.65,WSW,245,1.0,4.0,99,0.00,,,-99.99,,2013-01-16 13:12:00,
2013-01-16 08:23:00,31.0,31.0,29.65,ESE,105,1.0,3.0,99,0.00,,,-99.99,,2013-01-16 13:23:00,
2013-01-16 08:33:00,32.0,32.0,29.65,ESE,105,1.0,2.0,99,0.00,,,-99.99,,2013-01-16 13:33:00,
2013-01-16 08:43:00,32.0,32.0,29.65,ESE,105,1.0,2.0,99,0.00,,,-99.99,,2013-01-16 13:43:00,
2013-01-16 08:53:00,32.0,32.0,29.65,WNW,284,1.0,4.0,99,0.00,,,-99.99,,2013-01-16 13:53:00,
2013-01-16 09:03:00,32.0,32.0,29.65,ENE,63,1.0,3.0,99,0.00,,,-99.99,,2013-01-16 14:03:00,
2013-01-16 09:12:00,32.0,32.0,29.65,ENE,63,1.0,3.0,99,0.00,,,-99.99,,2013-01-16 14:12:00,
2013-01-16 09:23:00,33.0,33.0,29.62,WSW,237,0.0,2.0,99,0.00,,,-99.99,,2013-01-16 14:23:00,
2013-01-16 09:33:00,33.0,33.0,29.62,SSE,155,0.0,3.0,99,0.00,,,-99.99,,2013-01-16 14:33:00,
2013-01-16 09:43:00,33.0,33.0,29.62,SSE,155,0.0,3.0,99,0.00,,,-99.99,,2013-01-16 14:43:00,
2013-01-16 09:53:00,35.0,35.0,29.59,NE,48,1.0,3.0,99,0.00,,,-99.99,,2013-01-16 14:53:00,
2013-01-16 10:03:00,34.0,34.0,29.59,SSW,211,0.0,2.0,99,0.00,,,-99.99,,2013-01-16 15:03:00,
2013-01-16 10:12:00,34.0,34.0,29.59,SSW,211,0.0,2.0,99,0.00,,,-99.99,,2013-01-16 15:12:00,
2013-01-16 10:23:00,34.0,34.0,29.59,WSW,252,0.0,3.0,99,0.00,,,-99.99,,2013-01-16 15:23:00,
2013-01-16 10:33:00,34.0,34.0,29.62,West,281,1.0,2.0,99,0.00,,,-99.99,,2013-01-16 15:33:00,
2013-01-16 10:43:00,34.0,34.0,29.62,West,281,1.0,2.0,99,0.00,,,-99.99,,2013-01-16 15:43:00,
2013-01-16 10:53:00,34.0,34.0,29.62,WNW,282,0.0,2.0,99,0.00,,,-99.99,,2013-01-16 15:53:00,
2013-01-16 11:03:00,34.0,34.0,29.62,WNW,286,3.0,5.0,99,0.00,,,-99.99,,2013-01-16 16:03:00,
2013-01-16 11:12:00,34.0,34.0,29.62,WNW,286,3.0,5.0,99,0.00,,,-99.99,,2013-01-16 16:12:00,
2013-01-16 11:22:00,34.0,34.0,29.62,NE,38,1.0,3.0,99,0.00,,,-99.99,,2013-01-16 16:22:00,
2013-01-16 11:33:00,34.0,34.0,29.59,East,95,0.0,3.0,99,0.00,,,-99.99,,2013-01-16 16:33:00,
2013-01-16 11:42:00,34.0,34.0,29.59,East,95,0.0,3.0,99,0.00,,,-99.99,,2013-01-16 16:42:00,
2013-01-16 11:53:00,34.0,34.0,29.59,WSW,255,0.0,2.0,99,0.00,,,-99.99,,2013-01-16 16:53:00,
2013-01-16 12:03:00,35.0,35.0,29.59,East,92,1.0,2.0,99,0.00,,,-99.99,,2013-01-16 17:03:00,
2013-01-16 12:12:00,35.0,35.0,29.59,East,92,1.0,2.0,99,0.00,,,-99.99,,2013-01-16 17:12:00,
2013-01-16 12:23:00,34.0,34.0,29.59,East,89,1.0,3.0,99,0.00,,,-99.99,,2013-01-16 17:23:00,
2013-01-16 12:33:00,35.0,35.0,29.59,East,90,1.0,3.0,99,0.00,,,-99.99,,2013-01-16 17:33:00,
2013-01-16 12:43:00,35.0,35.0,29.59,East,90,1.0,3.0,99,0.00,,,-99.99,,2013-01-16 17:43:00,
2013-01-16 12:53:00,34.0,34.0,29.57,East,93,1.0,2.0,99,0.00,,,-99.99,,2013-01-16 17:53:00,
2013-01-16 13:03:00,33.0,33.0,29.56,NE,41,1.0,4.0,99,0.00,,,-99.99,,2013-01-16 18:03:00,
2013-01-16 13:13:00,34.0,34.0,29.56,ESE,103,1.0,3.0,99,0.00,,,-99.99,,2013-01-16 18:13:00,
2013-01-16 13:23:00,34.0,34.0,29.56,ESE,103,1.0,3.0,99,0.00,,,-99.99,,2013-01-16 18:23:00,
2013-01-16 13:33:00,34.0,34.0,29.53,ESE,114,1.0,3.0,99,0.00,,,-99.99,,2013-01-16 18:33:00,
2013-01-16 13:42:00,34.0,34.0,29.53,ESE,114,1.0,3.0,99,0.00,,,-99.99,,2013-01-16 18:42:00,
2013-01-16 13:53:00,34.0,34.0,29.50,WSW,254,1.0,3.0,99,0.00,,,-99.99,,2013-01-16 18:53:00,
2013-01-16 14:03:00,34.0,34.0,29.50,WSW,250,1.0,4.0,99,0.00,,,-99.99,,2013-01-16 19:03:00,
2013-01-16 14:12:00,34.0,34.0,29.50,WSW,250,1.0,4.0,99,0.00,,,-99.99,,2013-01-16 19:12:00,
2013-01-16 14:23:00,34.0,34.0,29.53,WNW,302,2.0,3.0,99,0.00,,,-99.99,,2013-01-16 19:23:00,
2013-01-16 14:33:00,34.0,34.0,29.55,NW,306,3.0,6.0,99,0.00,,,-99.99,,2013-01-16 19:33:00,
2013-01-16 14:43:00,34.0,34.0,29.55,NW,306,3.0,6.0,99,0.00,,,-99.99,,2013-01-16 19:43:00,
2013-01-16 14:53:00,33.0,33.0,29.55,NW,307,3.0,7.0,99,0.00,,,-99.99,,2013-01-16 19:53:00,
2013-01-16 15:03:00,33.0,33.0,29.56,NW,309,3.0,7.0,99,0.00,,,-99.99,,2013-01-16 20:03:00,
2013-01-16 15:12:00,33.0,33.0,29.56,NW,309,3.0,7.0,99,0.00,,,-99.99,,2013-01-16 20:12:00,
2013-01-16 15:23:00,32.0,32.0,29.56,WNW,290,1.0,7.0,99,0.00,,,-99.99,,2013-01-16 20:23:00,
2013-01-16 15:33:00,33.0,33.0,29.55,SW,235,0.0,2.0,99,0.00,,,-99.99,,2013-01-16 20:33:00,
2013-01-16 15:43:00,33.0,33.0,29.55,SW,235,0.0,2.0,99,0.00,,,-99.99,,2013-01-16 20:43:00,
2013-01-16 15:53:00,33.0,33.0,29.56,WNW,297,1.0,3.0,99,0.00,,,-99.99,,2013-01-16 20:53:00,
2013-01-16 16:03:00,34.0,34.0,29.56,WSW,255,0.0,2.0,99,0.00,,,-99.99,,2013-01-16 21:03:00,
2013-01-16 16:12:00,34.0,34.0,29.56,WSW,255,0.0,2.0,99,0.00,,,-99.99,,2013-01-16 21:12:00,
2013-01-16 16:22:00,33.0,33.0,29.56,WNW,288,1.0,4.0,99,0.00,,,-99.99,,2013-01-16 21:22:00,
2013-01-16 16:33:00,33.0,33.0,29.56,WNW,287,1.0,3.0,99,0.00,,,-99.99,,2013-01-16 21:33:00,
2013-01-16 16:43:00,33.0,33.0,29.56,WNW,287,1.0,3.0,99,0.00,,,-99.99,,2013-01-16 21:43:00,
2013-01-16 16:53:00,33.0,33.0,29.56,WSW,252,0.0,3.0,99,0.00,,,-99.99,,2013-01-16 21:53:00,
2013-01-16 17:03:00,33.0,33.0,29.56,West,274,1.0,2.0,99,0.00,,,-99.99,,2013-01-16 22:03:00,
2013-01-16 17:12:00,33.0,33.0,29.56,West,274,1.0,2.0,99,0.00,,,-99.99,,2013-01-16 22:12:00,
2013-01-16 17:23:00,33.0,33.0,29.56,West,274,1.0,2.0,99,0.00,,,-99.99,,2013-01-16 22:23:00,
2013-01-16 17:33:00,33.0,33.0,29.56,West,280,1.0,3.0,99,0.00,,,-99.99,,2013-01-16 22:33:00,
2013-01-16 17:43:00,33.0,33.0,29.56,West,280,1.0,3.0,99,0.00,,,-99.99,,2013-01-16 22:43:00,
2013-01-16 17:53:00,33.0,33.0,29.56,West,260,1.0,3.0,99,0.00,,,-99.99,,2013-01-16 22:53:00,
2013-01-16 18:03:00,34.0,34.0,29.56,WSW,243,1.0,2.0,99,0.00,,,-99.99,,2013-01-16 23:03:00,
2013-01-16 18:12:00,34.0,34.0,29.56,WSW,251,0.0,2.0,99,0.00,,,-99.99,,2013-01-16 23:12:00,
2013-01-16 18:23:00,34.0,34.0,29.56,WSW,251,0.0,2.0,99,0.00,,,-99.99,,2013-01-16 23:23:00,
2013-01-16 18:32:00,34.0,34.0,29.56,WSW,250,1.0,4.0,99,0.00,,,-99.99,,2013-01-16 23:32:00,
2013-01-16 18:42:00,34.0,34.0,29.56,WSW,250,1.0,4.0,99,0.00,,,-99.99,,2013-01-16 23:42:00,
2013-01-16 18:53:00,34.0,34.0,29.56,WSW,251,2.0,4.0,99,0.00,,,-99.99,,2013-01-16 23:53:00,
2013-01-16 19:02:00,35.0,35.0,29.56,WSW,251,2.0,4.0,99,0.00,,,-99.99,,2013-01-17 00:02:00,
2013-01-16 19:12:00,35.0,35.0,29.56,WSW,251,2.0,4.0,99,0.00,,,-99.99,,2013-01-17 00:12:00,
2013-01-16 19:22:00,35.0,35.0,29.56,WSW,251,1.0,3.0,99,0.00,,,-99.99,,2013-01-17 00:22:00,
2013-01-16 19:32:00,35.0,35.0,29.56,WSW,252,2.0,5.0,99,0.00,,,-99.99,,2013-01-17 00:32:00,
2013-01-16 19:42:00,35.0,35.0,29.56,WSW,252,2.0,5.0,99,0.00,,,-99.99,,2013-01-17 00:42:00,
2013-01-16 19:52:00,35.0,35.0,29.56,West,266,2.0,5.0,99,0.00,,,-99.99,,2013-01-17 00:52:00,
2013-01-16 20:02:00,35.0,35.0,29.56,West,264,2.0,5.0,99,0.00,,,-99.99,,2013-01-17 01:02:00,
2013-01-16 20:12:00,35.0,35.0,29.56,West,264,2.0,5.0,99,0.00,,,-99.99,,2013-01-17 01:12:00,
2013-01-16 20:22:00,35.0,35.0,29.56,West,273,2.0,5.0,99,0.00,,,-99.99,,2013-01-17 01:22:00,
2013-01-16 20:33:00,35.0,35.0,29.56,West,277,2.0,3.0,99,0.00,,,-99.99,,2013-01-17 01:33:00,
2013-01-16 20:42:00,35.0,35.0,29.56,West,277,2.0,3.0,99,0.00,,,-99.99,,2013-01-17 01:42:00,
2013-01-16 20:52:00,35.0,34.0,29.56,West,274,3.0,5.0,98,0.00,,,-99.99,,2013-01-17 01:52:00,
2013-01-16 21:02:00,35.0,34.0,29.57,WNW,283,3.0,6.0,97,0.00,,,-99.99,,2013-01-17 02:02:00,
2013-01-16 21:12:00,35.0,34.0,29.57,WNW,283,3.0,6.0,97,0.00,,,-99.99,,2013-01-17 02:12:00,
2013-01-16 21:22:00,35.0,34.0,29.57,West,279,2.0,5.0,97,0.00,,,-99.99,,2013-01-17 02:22:00,
2013-01-16 21:32:00,35.0,34.0,29.56,WNW,283,3.0,6.0,96,0.00,,,-99.99,,2013-01-17 02:32:00,
2013-01-16 21:42:00,35.0,34.0,29.56,WNW,283,3.0,6.0,96,0.00,,,-99.99,,2013-01-17 02:42:00,
2013-01-16 21:52:00,35.0,34.0,29.56,WNW,283,3.0,6.0,96,0.00,,,-99.99,,2013-01-17 02:52:00,
2013-01-16 22:03:00,35.0,34.0,29.56,West,273,2.0,5.0,96,0.00,,,-99.99,,2013-01-17 03:03:00,
2013-01-16 22:12:00,35.0,34.0,29.56,West,273,2.0,5.0,96,0.00,,,-99.99,,2013-01-17 03:12:00,
2013-01-16 22:22:00,35.0,34.0,29.56,WSW,256,2.0,3.0,96,0.00,,,-99.99,,2013-01-17 03:22:00,
2013-01-16 22:32:00,35.0,34.0,29.56,West,271,2.0,4.0,97,0.00,,,-99.99,,2013-01-17 03:32:00,
2013-01-16 22:42:00,35.0,34.0,29.56,West,271,2.0,4.0,97,0.00,,,-99.99,,2013-01-17 03:42:00,
2013-01-16 22:53:00,35.0,34.0,29.56,WSW,250,1.0,3.0,97,0.00,,,-99.99,,2013-01-17 03:53:00,
2013-01-16 23:02:00,35.0,34.0,29.56,West,269,1.0,4.0,96,0.00,,,-99.99,,2013-01-17 04:02:00,
2013-01-16 23:12:00,35.0,34.0,29.56,West,273,2.0,4.0,96,0.00,,,-99.99,,2013-01-17 04:12:00,
2013-01-16 23:22:00,35.0,34.0,29.56,West,273,2.0,4.0,96,0.00,,,-99.99,,2013-01-17 04:22:00,
2013-01-16 23:32:00,35.0,34.0,29.56,WNW,285,1.0,3.0,96,0.00,,,-99.99,,2013-01-17 04:32:00,
2013-01-16 23:42:00,35.0,34.0,29.56,WNW,285,1.0,3.0,96,0.00,,,-99.99,,2013-01-17 04:42:00,
2013-01-16 23:52:00,35.0,34.0,29.56,WNW,282,2.0,5.0,95,0.00,,,-99.99,,2013-01-17 04:52:00,